Weather History for Point Hope, AK

Change the Weather History Date:

Tuesday, May 8, 2012

  Actual Average Record
Temperature  
Mean Temperature 16 °F -  
Max Temperature 19 °F 28 °F 39 °F (2004)
Min Temperature 14 °F 19 °F 3 °F (2000)
Degree Days  
Heating Degree Days 48    
Moisture  
Dew Point -4 °F    
Average Humidity 39    
Maximum Humidity 45    
Minimum Humidity 35    
Precipitation  
Precipitation 0.00 in - - ()
Sea Level Pressure  
Sea Level Pressure 29.89 in    
Wind  
Wind Speed 21 mph (North)    
Max Wind Speed 31 mph    
Max Gust Speed 38 mph    
Visibility 9 miles    
Events      
Averages and records for this station are not official NWS values.
T = Trace of Precipitation, MM = Missing Value Source: NWS Daily Summary

Daily Weather History Graph

Daily Weather History Graph

Search for Another Location

Airport:

Trip Planner

Search our weather history database for the weather conditions in past years. The results will help you decide how hot, cold, wet, or windy it might be!

Date:

Astronomy

May. 08, 2012 Rise Set
Actual Time 5:21 AM AKDT 12:50 AM AKDT
Civil Twilight 3:36 AM AKDT 2:31 AM AKDT
Nautical Twilight Sun does not rise Sun does not rise
Astronomical Twilight Sun does not rise Sun does not rise
Moon No Moon Rise No Moon Set
Length of Visible Light 22h 55m
Length of Day
19h 29m
Waning Gibbous, 89% of the Moon is Illuminated
May 8
Waning Gibbous
May 12
Last Quarter
May 20
New
May 28
First Quarter
Jun 4
Full

Hourly Weather History & Observations

Time (AKDT) Temp. Windchill Dew Point Humidity Pressure Visibility Wind Dir Wind Speed Gust Speed Precip Events Conditions
12:16 AM 14.0 °F 0.5 °F -7.6 °F 38% 29.99 in 10.0 mi NNE 11.5 mph - N/A   Clear
12:36 AM 15.8 °F 2.1 °F -5.8 °F 38% 29.98 in 10.0 mi North 12.7 mph - N/A   Clear
12:56 AM 15.8 °F 0.3 °F -5.8 °F 38% 29.97 in 10.0 mi NNE 16.1 mph - N/A   Clear
1:16 AM 15.8 °F -1.5 °F -5.8 °F 38% 29.97 in 10.0 mi NNE 20.7 mph - N/A   Clear
1:36 AM 15.8 °F 0.9 °F -7.6 °F 35% 29.98 in 10.0 mi NNE 15.0 mph - N/A   Clear
1:56 AM 15.8 °F 2.1 °F -7.6 °F 35% 29.97 in 10.0 mi North 12.7 mph - N/A   Clear
2:16 AM 15.8 °F -0.2 °F -5.8 °F 38% 29.96 in 10.0 mi NNE 17.3 mph - N/A   Clear
2:36 AM 15.8 °F 0.9 °F -7.6 °F 35% 29.96 in 10.0 mi NNE 15.0 mph - N/A   Clear
2:56 AM 15.8 °F 1.4 °F -7.6 °F 35% 29.96 in 10.0 mi NNE 13.8 mph - N/A   Clear
3:16 AM 15.8 °F -1.1 °F -5.8 °F 38% 29.95 in 10.0 mi NNE 19.6 mph - N/A   Clear
3:36 AM 15.8 °F 0.3 °F -5.8 °F 38% 29.96 in 10.0 mi North 16.1 mph - N/A   Clear
3:56 AM 15.8 °F -0.6 °F -5.8 °F 38% 29.95 in 10.0 mi NNE 18.4 mph 21.9 mph N/A   Clear
4:56 AM 17.6 °F -0.6 °F -5.8 °F 35% 29.95 in 10.0 mi North 25.3 mph - N/A   Clear
5:16 AM 17.6 °F -1.9 °F -5.8 °F 35% 29.94 in 10.0 mi NNE 29.9 mph 36.8 mph N/A   Clear
5:36 AM 17.6 °F -1.6 °F -5.8 °F 35% 29.94 in 10.0 mi NNE 28.8 mph 35.7 mph N/A   Clear
5:56 AM 15.8 °F -4.4 °F -5.8 °F 38% 29.93 in 10.0 mi NNE 29.9 mph - N/A   Clear
6:16 AM 15.8 °F -1.9 °F -5.8 °F 38% 29.95 in 10.0 mi NNE 21.9 mph - N/A   Clear
6:36 AM 17.6 °F 1.3 °F -5.8 °F 35% 29.95 in 10.0 mi North 19.6 mph - N/A   Clear
6:56 AM 17.6 °F 0.5 °F -5.8 °F 35% 29.94 in 10.0 mi North 21.9 mph 28.8 mph N/A   Clear
7:16 AM 17.6 °F -1.9 °F -5.8 °F 35% 29.92 in 10.0 mi North 29.9 mph 34.5 mph N/A   Clear
7:36 AM 17.6 °F -1.3 °F -5.8 °F 35% 29.93 in 10.0 mi North 27.6 mph 31.1 mph N/A   Clear
7:56 AM 17.6 °F -1.0 °F -5.8 °F 35% 29.93 in 10.0 mi North 26.5 mph 31.1 mph N/A   Clear
8:16 AM 15.8 °F -4.4 °F -5.8 °F 38% 29.92 in 10.0 mi North 29.9 mph - N/A   Clear
8:36 AM 17.6 °F -1.0 °F -5.8 °F 35% 29.93 in 10.0 mi North 26.5 mph 33.4 mph N/A   Clear
8:56 AM 17.6 °F -1.0 °F -5.8 °F 35% 29.93 in 10.0 mi North 26.5 mph - N/A   Clear
9:16 AM 17.6 °F -1.6 °F -5.8 °F 35% 29.93 in 10.0 mi North 28.8 mph 32.2 mph N/A   Clear
9:36 AM 17.6 °F -1.3 °F -5.8 °F 35% 29.93 in 10.0 mi North 27.6 mph 33.4 mph N/A   Clear
9:56 AM 17.6 °F -1.3 °F -4.0 °F 38% 29.93 in 5.0 mi North 27.6 mph 32.2 mph N/A   Clear
10:16 AM 17.6 °F -1.6 °F -4.0 °F 38% 29.92 in 5.0 mi North 28.8 mph 34.5 mph N/A   Clear
10:36 AM 17.6 °F -1.3 °F -2.2 °F 42% 29.92 in 3.0 mi North 27.6 mph 34.5 mph N/A   Clear
10:56 AM 17.6 °F -1.3 °F -2.2 °F 42% 29.91 in 7.0 mi North 27.6 mph 31.1 mph N/A   Clear
11:16 AM 17.6 °F -1.6 °F -2.2 °F 42% 29.91 in 3.0 mi North 28.8 mph 38.0 mph N/A   Clear
11:36 AM 17.6 °F -1.9 °F -2.2 °F 42% 29.91 in 2.5 mi North 29.9 mph 34.5 mph N/A   Clear
11:56 AM 17.6 °F -1.9 °F -2.2 °F 42% 29.91 in 1.5 mi North 29.9 mph 36.8 mph N/A   Clear
12:16 PM 17.6 °F -2.2 °F -2.2 °F 42% 29.91 in 4.0 mi North 31.1 mph 36.8 mph N/A   Clear
12:36 PM 17.6 °F -1.3 °F -2.2 °F 42% 29.92 in 10.0 mi North 27.6 mph - N/A   Clear
12:56 PM 17.6 °F -1.6 °F -2.2 °F 42% 29.92 in 8.0 mi North 28.8 mph 33.4 mph N/A   Clear
1:16 PM 19.4 °F 1.4 °F -2.2 °F 39% 29.92 in 10.0 mi North 26.5 mph 31.1 mph N/A   Clear
1:36 PM 17.6 °F 0.1 °F -2.2 °F 42% 29.92 in 10.0 mi North 23.0 mph 31.1 mph N/A   Clear
1:56 PM 19.4 °F 1.4 °F -2.2 °F 39% 29.91 in 10.0 mi North 26.5 mph 33.4 mph N/A   Clear
2:16 PM 19.4 °F 2.1 °F -2.2 °F 39% 29.90 in 10.0 mi North 24.2 mph - N/A   Clear
2:36 PM 19.4 °F 1.8 °F -2.2 °F 39% 29.90 in 10.0 mi North 25.3 mph 31.1 mph N/A   Clear
2:56 PM 19.4 °F 0.8 °F -2.2 °F 39% 29.90 in 10.0 mi North 28.8 mph 33.4 mph N/A   Clear
3:16 PM 19.4 °F 1.8 °F -2.2 °F 39% 29.90 in 10.0 mi North 25.3 mph - N/A   Clear
3:56 PM 19.4 °F 2.1 °F -0.4 °F 42% 29.88 in 10.0 mi North 24.2 mph 29.9 mph N/A   Clear
4:16 PM 19.4 °F 1.4 °F -2.2 °F 39% 29.88 in 10.0 mi North 26.5 mph - N/A   Clear
4:36 PM 19.4 °F 3.6 °F -2.2 °F 39% 29.88 in 10.0 mi North 19.6 mph - N/A   Clear
4:56 PM 19.4 °F 2.5 °F -2.2 °F 39% 29.87 in 10.0 mi North 23.0 mph 28.8 mph N/A   Clear
5:16 PM 19.4 °F 2.5 °F -2.2 °F 39% 29.86 in 10.0 mi North 23.0 mph - N/A   Clear
5:36 PM 19.4 °F 2.1 °F -2.2 °F 39% 29.86 in 10.0 mi North 24.2 mph - N/A   Clear
5:56 PM 19.4 °F 0.8 °F -2.2 °F 39% 29.84 in 10.0 mi North 28.8 mph - N/A   Clear
6:16 PM 19.4 °F 1.8 °F -2.2 °F 39% 29.84 in 10.0 mi North 25.3 mph - N/A   Clear
6:36 PM 19.4 °F 2.5 °F -0.4 °F 42% 29.83 in 10.0 mi North 23.0 mph - N/A   Clear
6:56 PM 19.4 °F 1.1 °F -2.2 °F 39% 29.81 in 10.0 mi North 27.6 mph - N/A   Clear
7:16 PM 19.4 °F 2.5 °F -2.2 °F 39% 29.82 in 10.0 mi North 23.0 mph 27.6 mph N/A   Clear
7:36 PM 19.4 °F 2.8 °F -2.2 °F 39% 29.81 in 10.0 mi North 21.9 mph 29.9 mph N/A   Clear
7:56 PM 19.4 °F 1.8 °F -2.2 °F 39% 29.80 in 10.0 mi North 25.3 mph - N/A   Clear
8:16 PM 17.6 °F -1.0 °F -2.2 °F 42% 29.80 in 10.0 mi North 26.5 mph 31.1 mph N/A   Clear
8:36 PM 17.6 °F 0.5 °F -2.2 °F 42% 29.80 in 10.0 mi North 21.9 mph 26.5 mph N/A   Clear
8:56 PM 17.6 °F 0.9 °F -2.2 °F 42% 29.80 in 10.0 mi North 20.7 mph - N/A   Clear
9:16 PM 17.6 °F 0.5 °F -2.2 °F 42% 29.79 in 10.0 mi North 21.9 mph - N/A   Partly Cloudy
9:36 PM 17.6 °F 1.7 °F -2.2 °F 42% 29.79 in 10.0 mi North 18.4 mph - N/A   Partly Cloudy
9:56 PM 17.6 °F 0.5 °F -2.2 °F 42% 29.78 in 10.0 mi North 21.9 mph - N/A   Mostly Cloudy
10:16 PM 15.8 °F -0.6 °F -2.2 °F 45% 29.78 in 10.0 mi North 18.4 mph - N/A   Mostly Cloudy
10:36 PM 15.8 °F 0.3 °F -2.2 °F 45% 29.77 in 10.0 mi North 16.1 mph - N/A   Overcast
10:56 PM 15.8 °F 0.3 °F -4.0 °F 41% 29.77 in 10.0 mi North 16.1 mph - N/A   Mostly Cloudy
11:16 PM 15.8 °F -0.6 °F -4.0 °F 41% 29.76 in 10.0 mi North 18.4 mph 23.0 mph N/A   Mostly Cloudy
11:36 PM 15.8 °F -1.1 °F -4.0 °F 41% 29.75 in 10.0 mi NNW 19.6 mph - N/A   Overcast
11:56 PM 15.8 °F -1.1 °F -4.0 °F 41% 29.74 in 10.0 mi NNW 19.6 mph 24.2 mph N/A   Overcast